Starlink 32876

operational
NORAD ID: 63151 Int'l Des: 2025-043 Owner: SPXS Country: US Constellation: starlink
LEOCIRCULAR

关于 Starlink 32876

正在加载描述...

实时位置

正在加载3D地球...

即将过境

高度历史

Altitude vs Time

uPlot chart will show altitude changes over time

两行轨道根数

1 63151U 25043V 25258.36286508 .00060388 00000-0 21808-2 0 9996
2 63151 42.9987 285.9265 0001144 262.9956 97.0765 15.27659150 30551
Epoch: Sep 15, 2025 • Age: 17 hours

当前状态

高度 485.6 km
速度 7.62 km/s
星下点 -16.51°S, 119.75°W
发射日期 Mar 3, 2025
运行时间 0.5 years
类型 internet

技术详情

分类 Payload
质量 730.00 kg
干质量 700.00 kg
总质量 730.00 kg
长度 0.30 m
直径 4.10 m
跨度 29.00 m
形状 Box + pan
制造商 SPXS
平台类型 Starlink V2M
阶段状态 In Orbit
所有者/国家 SPXS/US

大型星座

Loading constellations...